Wind_Speed
29 32 35 34 33 33 33 34 35 36 36 35 34 34 33 33 34 34 35 36 37 38 39 40 42 42 42 43 43 44 44 46 46 46 47 48 48 48 48 47 47 46 46
32 32 30 29 30 32 33 34 35 36 35 34 33 33 34 35 35 36 37 38 39 40 40 41 43 44 46 47 47 48 50 52 53 53 53 54 54 55 54 54 54 53 53
31 28 26 26 28 30 32 35 36 37 36 35 34 35 36 37 37 38 40 41 42 42 43 44 46 48 49 50 52 53 55 56 57 58 59 58 58 59 59 59 60 60 60
28 26 26 28 30 33 35 38 40 39 37 36 36 37 38 39 40 41 42 43 44 45 47 48 49 51 53 55 58 60 61 62 64 65 66 66 66 66 66 66 66 66 66
27 28 30 33 35 37 39 41 42 41 39 38 38 39 40 41 41 43 44 46 47 49 51 54 56 59 61 63 65 67 68 69 70 71 72 73 74 74 73 73 72 72 73
30 32 34 37 39 40 41 43 43 42 40 38 38 39 41 42 43 45 48 51 53 56 59 61 64 65 67 69 70 71 71 72 73 74 75 77 78 78 78 79 79 79 79
32 35 38 41 42 42 43 43 41 40 39 38 38 40 43 45 48 51 54 56 59 63 66 68 69 70 71 72 74 74 75 76 77 78 80 81 82 83 84 85 86 87 87
34 38 42 43 43 43 42 39 37 37 39 41 42 44 45 47 51 55 58 61 64 66 68 70 71 72 73 74 75 76 76 77 78 79 82 84 86 88 90 92 93 94 94
39 42 43 42 42 40 37 37 38 40 43 46 48 50 52 53 54 56 60 64 66 67 68 69 70 72 74 75 76 78 79 81 82 83 85 87 89 91 94 96 98 99 100
40 41 41 40 39 38 39 40 42 44 46 49 53 58 61 65 67 66 63 63 64 66 67 69 71 73 75 77 79 82 84 86 88 90 92 94 96 97 99 100 102 103 104
40 40 39 39 39 40 41 44 46 48 51 54 57 60 64 68 72 74 73 69 66 66 67 70 74 78 81 84 86 89 91 94 96 99 102 104 105 106 106 106 106 106 108
39 38 39 39 40 41 43 46 49 52 56 59 62 64 66 68 68 70 72 73 73 72 73 77 82 86 90 93 96 100 102 105 107 109 110 111 112 111 111 110 109 108 108
38 38 39 40 42 43 46 49 52 56 59 62 65 67 68 68 69 70 72 75 77 79 82 85 90 95 100 103 107 110 113 114 115 114 112 111 109 106 104 103 102 102 101
38 39 41 43 45 47 50 53 57 60 63 65 66 66 66 66 69 73 78 82 84 85 87 91 97 103 108 112 115 118 118 117 114 110 106 102 98 95 92 91 90 90 91
39 41 43 45 48 51 54 58 62 64 65 65 65 65 67 70 74 79 84 90 95 96 94 98 104 109 114 118 118 115 111 107 101 96 91 88 86 84 83 82 82 82 82
42 44 46 48 51 55 59 63 65 66 65 65 66 68 71 76 80 85 90 96 102 107 107 106 111 115 116 113 106 101 94 89 84 81 80 80 81 81 80 78 76 75 74
45 47 50 52 56 60 64 66 67 65 64 66 69 73 78 82 87 92 98 103 108 114 118 117 115 110 102 93 85 79 75 75 77 80 82 81 80 77 74 71 70 69 69
48 50 53 56 60 64 67 67 65 64 66 69 74 79 84 89 94 100 106 111 116 119 121 117 104 89 79 73 69 67 68 73 78 80 77 73 71 68 66 65 65 65 65
51 53 57 61 65 67 67 65 64 66 70 75 81 87 92 98 103 109 115 118 120 116 108 98 86 74 68 65 65 66 68 70 70 68 65 63 61 59 58 59 60 60 61
53 56 61 65 68 68 66 64 66 70 76 82 88 94 100 106 112 117 119 119 113 102 90 82 77 72 68 67 68 69 65 59 53 51 50 50 50 51 51 53 53 53 53
56 61 65 68 69 67 65 66 70 76 82 88 94 101 107 113 118 119 116 108 99 90 83 79 77 74 70 69 68 65 57 47 40 43 46 45 47 47 47 46 43 42 41
61 65 68 68 66 65 66 70 76 82 88 94 100 107 113 117 116 110 102 95 90 86 82 79 75 71 66 64 60 52 47 41 34 36 42 40 44 42 39 35 30 26 25
64 67 67 65 65 67 70 76 82 87 94 101 107 113 116 113 106 98 91 87 83 77 73 69 63 57 54 49 46 42 39 36 32 33 35 34 36 33 27 20 14 13 14
65 65 63 63 66 71 76 81 86 93 99 106 112 114 110 102 93 88 85 80 72 63 56 51 46 42 39 37 37 36 32 28 26 31 32 28 26 23 16 9 7 9 13
62 60 62 65 70 75 80 86 91 97 104 109 110 106 98 91 85 80 76 68 57 46 39 35 33 31 32 34 34 31 27 24 24 27 28 24 21 16 11 9 9 11 15
57 60 64 69 74 79 85 91 98 103 107 107 101 92 86 81 76 70 63 52 40 31 26 24 25 28 30 31 30 28 26 24 22 23 24 22 19 15 12 13 14 15 16
Wind_Direction
300 299 295 292 292 293 294 297 299 300 299 296 293 290 287 285 283 282 281 280 279 278 278 278 278 278 277 276 275 274 272 271 269 268 267 266 265 263 262 261 261 261 261
299 298 296 293 290 291 293 297 301 301 299 294 291 289 288 286 284 284 283 282 281 279 278 277 276 276 275 275 275 275 274 272 271 269 268 268 267 267 266 265 264 264 264
299 298 298 297 295 294 296 299 302 301 297 293 290 288 287 286 285 284 284 284 283 282 281 280 279 278 278 277 277 276 276 275 274 273 271 270 269 269 269 268 268 266 265
299 299 302 302 301 300 301 302 302 301 297 293 290 288 287 286 286 284 284 283 283 283 284 284 284 283 282 282 281 280 279 278 276 275 274 273 272 271 270 269 269 268 267
296 298 300 301 301 301 302 302 300 298 295 291 289 288 287 287 287 286 286 286 286 286 286 286 285 285 284 282 281 280 279 278 277 276 274 273 272 272 271 270 270 269 268
290 293 296 298 298 300 300 298 296 294 292 290 289 289 288 288 287 287 287 288 288 288 287 287 287 287 286 285 283 282 280 279 277 276 275 274 273 273 272 271 271 270 269
290 294 297 298 298 299 299 297 295 293 291 290 290 290 291 291 292 292 292 292 292 292 292 291 291 290 289 287 286 284 283 282 280 279 277 276 275 274 272 272 271 270 269
295 297 298 298 299 300 299 298 296 295 294 292 292 292 292 294 295 296 296 295 294 294 293 292 291 289 288 287 286 285 284 283 282 281 279 278 276 274 272 271 269 268 268
298 298 299 300 301 300 300 298 297 297 297 297 297 297 296 295 293 294 294 294 293 293 292 291 290 290 290 289 288 287 285 284 283 282 280 279 278 276 274 272 271 269 268
297 298 299 300 299 299 299 300 300 300 300 300 300 300 300 300 298 296 295 295 294 293 293 293 293 293 293 292 291 290 288 286 285 283 282 281 279 277 275 273 271 269 267
296 297 298 298 299 301 302 303 303 302 301 300 300 300 300 300 300 300 299 297 297 296 296 297 297 297 296 295 295 294 293 291 290 288 286 284 282 280 278 275 273 270 268
295 296 297 298 299 301 302 302 302 301 301 301 301 301 301 301 300 300 300 300 300 300 300 300 300 300 299 299 298 297 296 295 293 291 289 286 285 283 281 278 275 272 269
294 295 296 298 299 301 301 301 300 301 302 303 303 303 303 303 303 303 302 302 301 302 302 303 303 303 302 301 300 298 297 295 293 290 287 285 284 282 280 278 276 273 270
293 296 297 299 300 300 301 301 301 303 304 304 304 304 303 303 303 303 303 303 303 303 304 304 304 302 301 300 298 297 295 293 290 287 286 284 282 280 278 276 274 271 269
295 296 297 299 300 301 301 302 303 304 305 305 305 304 303 303 303 304 304 305 305 304 304 304 302 300 299 298 297 295 292 290 288 287 286 285 283 281 279 277 274 271 269
294 296 298 299 300 301 302 304 305 306 306 306 305 305 305 305 306 306 306 306 306 304 304 303 301 300 299 297 295 292 291 291 290 290 288 287 286 284 282 280 276 272 268
295 297 298 299 301 303 304 306 307 307 307 307 307 307 308 308 309 308 307 307 306 305 304 304 303 301 298 295 293 292 293 293 293 292 291 289 287 285 282 279 275 272 268
295 296 298 300 303 305 307 307 308 307 307 308 309 310 310 310 310 309 308 307 307 306 306 305 304 300 297 295 294 294 295 295 295 294 292 289 286 282 280 277 275 271 268
295 297 300 303 305 307 307 307 307 307 308 310 311 311 312 312 311 310 309 309 308 308 306 304 303 301 298 296 295 297 299 299 298 295 292 289 285 281 278 276 274 271 269
297 300 302 305 307 307 307 307 307 308 310 311 312 313 313 313 312 311 310 310 309 307 305 304 302 301 299 297 298 301 302 301 300 297 295 291 288 284 281 278 277 274 272
300 302 305 307 307 307 307 307 308 310 311 312 314 314 314 313 313 313 312 310 308 306 304 302 300 299 298 297 299 302 303 301 301 299 294 294 291 289 287 285 282 279 275
302 304 306 307 307 307 308 308 309 311 312 314 314 314 315 315 314 313 311 309 308 306 304 301 299 298 297 298 301 303 304 305 305 296 294 296 295 294 291 290 288 286 285
304 306 307 308 308 309 310 310 311 312 314 315 315 316 316 316 314 313 311 309 307 305 303 300 300 299 299 301 303 307 310 312 309 301 301 304 301 298 293 292 292 302 308
306 307 307 309 310 311 311 312 313 315 315 316 317 318 317 316 315 313 312 312 311 309 305 303 302 302 304 307 312 317 319 319 315 310 316 318 310 305 296 293 299 312 319
307 308 310 312 312 312 313 315 316 317 318 319 320 319 318 317 316 316 316 317 316 314 311 309 309 311 315 318 321 324 327 328 324 320 324 326 324 319 303 288 295 308 320
308 310 312 312 313 315 316 318 318 319 320 321 320 319 318 317 318 318 319 321 324 323 320 316 317 319 322 324 326 331 336 339 337 332 331 329 325 322 307 294 296 306 316
Height
5805 5802 5799 5797 5796 5794 5792 5789 5786 5782 5779 5776 5773 5770 5768 5765 5763 5761 5758 5756 5753 5751 5748 5745 5743 5741 5739 5738 5735 5733 5732 5730 5729 5728 5726 5726 5725 5724 5723 5723 5723 5723 5723
5799 5796 5793 5791 5790 5788 5785 5783 5779 5775 5772 5769 5766 5763 5761 5758 5756 5753 5750 5747 5745 5742 5739 5737 5734 5732 5729 5727 5725 5723 5721 5718 5717 5715 5714 5713 5712 5711 5710 5710 5710 5710 5710
5792 5789 5787 5785 5783 5781 5778 5775 5772 5768 5765 5762 5759 5756 5753 5751 5748 5745 5742 5739 5736 5733 5730 5727 5725 5722 5719 5716 5713 5711 5708 5705 5703 5701 5700 5699 5698 5697 5696 5695 5695 5695 5695
5785 5783 5781 5779 5777 5775 5772 5768 5764 5761 5758 5755 5752 5748 5745 5743 5740 5737 5733 5730 5727 5724 5720 5717 5713 5710 5707 5704 5701 5698 5695 5692 5689 5687 5685 5684 5682 5681 5680 5679 5678 5678 5677
5778 5776 5775 5773 5770 5767 5764 5760 5757 5753 5750 5747 5744 5740 5737 5734 5730 5727 5724 5720 5716 5712 5709 5705 5701 5697 5693 5690 5687 5683 5680 5677 5674 5672 5669 5667 5664 5662 5660 5659 5659 5658 5658
5772 5770 5768 5765 5763 5759 5756 5752 5747 5744 5741 5739 5736 5732 5728 5724 5721 5717 5713 5709 5704 5700 5695 5691 5686 5682 5677 5672 5668 5665 5661 5658 5655 5653 5650 5647 5644 5642 5639 5638 5636 5636 5635
5765 5763 5760 5757 5754 5750 5746 5742 5738 5734 5731 5729 5726 5723 5718 5714 5711 5705 5701 5696 5691 5685 5679 5673 5668 5663 5658 5653 5648 5644 5640 5637 5634 5631 5628 5625 5623 5620 5618 5615 5614 5612 5612
5758 5755 5752 5748 5744 5740 5736 5732 5728 5725 5721 5719 5717 5714 5711 5707 5700 5694 5688 5681 5676 5670 5664 5657 5651 5645 5639 5634 5628 5623 5619 5615 5611 5607 5603 5600 5597 5594 5592 5590 5588 5587 5586
5750 5747 5743 5739 5734 5730 5726 5723 5720 5716 5712 5707 5703 5699 5696 5693 5692 5688 5680 5670 5663 5656 5649 5642 5635 5628 5621 5615 5608 5602 5596 5591 5587 5582 5577 5572 5568 5565 5562 5560 5558 5557 5557
5742 5738 5733 5729 5725 5721 5717 5713 5710 5706 5702 5696 5690 5684 5678 5672 5667 5667 5666 5657 5648 5640 5632 5624 5616 5608 5601 5594 5587 5579 5572 5565 5559 5553 5547 5541 5537 5533 5530 5528 5526 5525 5524
5733 5729 5724 5720 5716 5712 5708 5703 5699 5694 5690 5684 5679 5673 5665 5656 5647 5640 5639 5636 5630 5622 5613 5605 5595 5586 5577 5569 5560 5551 5543 5535 5527 5520 5512 5505 5500 5496 5493 5491 5490 5489 5487
5723 5719 5715 5711 5707 5703 5698 5693 5688 5683 5677 5670 5663 5656 5649 5641 5633 5624 5618 5613 5607 5601 5593 5583 5571 5560 5549 5539 5529 5518 5509 5500 5491 5482 5473 5466 5459 5454 5451 5449 5448 5448 5447
5714 5710 5706 5702 5698 5693 5688 5683 5677 5670 5663 5655 5647 5639 5630 5621 5613 5605 5598 5592 5587 5580 5570 5560 5546 5532 5519 5507 5495 5483 5473 5462 5453 5443 5434 5427 5420 5414 5409 5406 5405 5404 5404
5706 5701 5697 5693 5688 5683 5677 5671 5664 5657 5649 5640 5631 5623 5614 5606 5597 5587 5577 5568 5562 5559 5551 5540 5524 5508 5493 5478 5464 5449 5437 5425 5415 5405 5397 5390 5384 5379 5375 5373 5370 5368 5367
5696 5692 5688 5683 5677 5672 5665 5659 5651 5643 5634 5624 5615 5607 5598 5589 5580 5569 5557 5544 5533 5527 5528 5519 5500 5484 5465 5448 5431 5414 5401 5388 5378 5370 5363 5357 5351 5347 5343 5341 5339 5337 5336
5687 5682 5677 5671 5665 5659 5653 5645 5637 5627 5618 5608 5599 5590 5581 5571 5561 5549 5536 5523 5506 5492 5489 5490 5472 5453 5434 5415 5398 5382 5369 5357 5348 5341 5335 5328 5323 5317 5313 5311 5309 5307 5306
5677 5672 5666 5660 5654 5647 5639 5631 5621 5611 5602 5592 5582 5573 5562 5551 5540 5527 5513 5498 5482 5461 5447 5447 5436 5417 5398 5382 5371 5358 5346 5335 5325 5317 5309 5302 5295 5289 5285 5283 5281 5280 5279
5667 5662 5655 5648 5642 5634 5625 5616 5606 5595 5586 5576 5565 5554 5543 5530 5517 5502 5486 5470 5453 5433 5411 5400 5396 5382 5369 5356 5347 5339 5330 5318 5304 5293 5283 5276 5270 5265 5261 5258 5256 5255 5254
5657 5650 5643 5636 5628 5620 5610 5600 5590 5580 5569 5558 5546 5534 5521 5507 5492 5475 5457 5438 5420 5401 5380 5363 5358 5352 5344 5336 5326 5319 5310 5299 5284 5270 5261 5254 5248 5243 5240 5237 5234 5232 5232
5645 5638 5631 5623 5614 5604 5594 5584 5574 5564 5552 5539 5526 5511 5496 5481 5463 5445 5426 5406 5386 5369 5355 5342 5333 5328 5322 5314 5304 5296 5289 5280 5267 5254 5245 5237 5231 5226 5222 5218 5216 5215 5214
5633 5626 5618 5608 5598 5588 5578 5568 5558 5547 5534 5520 5505 5489 5471 5453 5434 5413 5391 5372 5354 5342 5332 5322 5313 5306 5301 5293 5285 5277 5269 5263 5256 5242 5232 5226 5217 5212 5207 5203 5200 5199 5197
5620 5612 5603 5593 5582 5572 5562 5552 5540 5529 5515 5499 5483 5466 5447 5427 5405 5384 5363 5345 5330 5317 5307 5298 5290 5284 5279 5273 5267 5260 5253 5247 5242 5234 5221 5216 5206 5200 5195 5191 5188 5187 5186
5607 5597 5587 5577 5567 5557 5547 5535 5523 5510 5495 5477 5459 5441 5421 5399 5377 5358 5342 5327 5313 5299 5286 5275 5269 5265 5261 5258 5253 5248 5241 5233 5227 5219 5212 5207 5197 5190 5185 5182 5181 5180 5179
5592 5582 5572 5562 5552 5542 5531 5519 5506 5492 5475 5455 5434 5412 5393 5374 5354 5337 5321 5308 5294 5281 5270 5262 5257 5253 5250 5246 5241 5237 5231 5226 5220 5211 5204 5198 5190 5184 5179 5178 5177 5176 5175
5578 5568 5558 5548 5538 5527 5514 5501 5487 5472 5454 5433 5411 5388 5366 5350 5335 5318 5303 5290 5279 5269 5261 5254 5249 5245 5242 5238 5233 5229 5225 5221 5215 5207 5199 5192 5186 5181 5178 5176 5174 5172 5170
5565 5555 5545 5534 5522 5510 5496 5481 5465 5449 5432 5414 5392 5370 5349 5332 5317 5303 5290 5279 5270 5263 5257 5251 5247 5242 5238 5234 5228 5223 5219 5215 5210 5203 5196 5189 5184 5180 5177 5174 5171 5169 5166